SL-16 DEB, 22331

Orbit data source: Space-Track

SL-16 DEB, 22331 is space debris in LEO originally from a launch on Fri, 25 Dec 1992 UTC launched from the Tyuratam Missile And Space Complex (TTMTR). Debris objects in space refer to the collection of defunct objects orbiting the Earth. Examples of debris include non-operational satellites, rocket bodies, and fragments generated from explosions, collisions, or faulty payload assembly.

Loading next visibility...
Identifier
22331, 1992-093U
Orbit
LEO
Country
Flag of CISCIS
Related business
Manufacturer
Unknown
Mission
Spacecraft
Bus & Motor
Unknown
Mass
Unknown
Launch date (UTC)
1992-12-25 (33 years ago)
Launch vehicle
Unknown
Launch site
Tyuratam Missile And Space Complex (TTMTR)
Object type
Payload
Rocket body
Debris
Shape & HBR
Unknown shape, 0.5 m
Radar Cross Section
Medium (>0.1 m² and <1 m²)

Expand to show TLE details & history
Last TLE update: 2 days ago

TLE from 2 days ago
0 SL-16 DEB
1 22331U 92093U   26171.30038079  .00000153  00000-0  12142-3 0  9993
2 22331  70.9220 105.3305 0078537 286.2932 196.2960 14.04998940715512
Epoch: 2026-06-20T07:12Z
TLE epoch observation values (Epoch: 2026-06-20T07:12:32.900Z)
Latitude
53.09637°
Longitude
-118.59258°
Altitude
939.387 km
Speed
7.359 km/s
True Right ascension
17h 12m 14s
True Declination
52° 56' 07"
Sunlit
Object was in daylight at epoch
Visualization orbit readout
Latitude
Unknown
Longitude
Unknown
Altitude
Unknown
Speed
Unknown
Apparent Right ascension
Unknown
Apparent Declination
Unknown
Sunlit
N/A
Visualization observer readout
Local Sidereal Time
01:06:10
Azimuth
Unknown
Elevation
Unknown
Doppler factor
Unknown
Orbital elements
Apogee altitude
931.438 km
Perigee altitude
817.518 km
Semi-major axis
7,252.615 km
Eccentricity
0.00785
Inclination
70.922°
RAAN
105.3305°
Arg. of periapsis
286.2932°
True anomaly
196.04583°
Mean anomaly
196.296°
Eccentric anomaly
196.17068°
Mean motion
3.514 °/min
Orbital period
102.45 mins
BSTAR
0.00012142
Loading maneuver chart data...
Computing Atmospheric mass density...
Loading historical data...
Loading historical data...
Loading historical data...
Loading historical data...
Loading historical data...
Loading historical data...
Loading historical data...

Documentation

Showing up to 5 results
|